Starlink 32902

operational
NORAD ID: 62898 Int'l Des: 2025-024 Owner: SPXS Country: US Constellation: starlink
LEOCIRCULAR

About Starlink 32902

Description loading...

Live Position

Loading 3D Globe...

Upcoming Passes

Altitude History

Altitude vs Time

uPlot chart will show altitude changes over time

Two-Line Element Set

1 62898U 25024V 25306.33725058 .00037693 00000-0 13712-2 0 9999
2 62898 43.0049 324.1831 0000293 313.7774 46.3054 15.27605143 42791
Epoch: Nov 2, 2025 • Age: 45 hours

Current Status

Altitude 495.7 km
Velocity 7.62 km/s
Sub-Earth Point -43.05°S, 106.53°E
Launch Date Feb 4, 2025
Age 0.7 years
Type internet

Technical Details

Classification Payload
Mass 730.00 kg
Dry Mass 700.00 kg
Total Mass 730.00 kg
Length 0.30 m
Diameter 4.10 m
Span 29.00 m
Shape Box + pan
Manufacturer SPXS
Bus Type Starlink V2M
Phase Status In Orbit
Owner/State SPXS/US

Large Constellations

Loading constellations...